Grand Marais, MN

9:45 AM CST on February 24, 2017 (GMT -0600)
Grand Marais-Cook County

Weather History for KCKC - April, 2013

Change the Weather History Date:

Monday, April 22, 2013

  Actual Average Record
Temperature  
Mean Temperature 32 °F -  
Max Temperature 35 °F 46 °F 89 °F (1997)
Min Temperature 28 °F 27 °F 17 °F (2002)
Degree Days  
Heating Degree Days 34    
Moisture  
Dew Point 23 °F    
Average Humidity 72    
Maximum Humidity 93    
Minimum Humidity 56    
Precipitation  
Precipitation 0.09 in - - ()
Sea Level Pressure  
Sea Level Pressure 30.13 in    
Wind  
Wind Speed 6 mph (WNW)    
Max Wind Speed 10 mph    
Max Gust Speed 20 mph    
Visibility 7 miles    
Events Fog , Snow    
Averages and records for this station are not official NWS values.
T = Trace of Precipitation, MM = Missing Value Source: NWS Daily Summary

Daily Weather History Graph

Daily Weather History Graph

Search for Another Location

Airport or City:

Trip Planner

Search our weather history database for the weather conditions in past years. The results will help you decide how hot, cold, wet, or windy it might be!

Date:

Astronomy

Apr. 22, 2013 Rise Set
Actual Time 5:58 AM CDT 8:01 PM CDT
Civil Twilight 5:25 AM CDT 8:35 PM CDT
Nautical Twilight 4:44 AM CDT 9:16 PM CDT
Astronomical Twilight 3:58 AM CDT 10:03 PM CDT
Moon 4:38 PM CDT (4/22) 4:08 AM CDT (4/22)
Length of Visible Light 15h 09m
Length of Day
14h 03m
Waxing Gibbous, 88% of the Moon is Illuminated
Apr 22
Waxing Gibbous
Apr 25
Full
May 2
Last Quarter
May 9
New
May 17
First Quarter

Hourly Weather History & Observations

Time (CDT) Temp. Windchill Dew Point Humidity Pressure Visibility Wind Dir Wind Speed Gust Speed Precip Events Conditions
12:14 AM 28.4 °F 24.6 °F 26.6 °F 93% 30.02 in 0.5 mi SSE 3.5 mph - 0.01 in   Overcast
12:34 AM 30.2 °F 26.7 °F 26.6 °F 86% 30.02 in 0.5 mi SSE 3.5 mph - 0.03 in   Overcast
12:54 AM 30.2 °F - 26.6 °F 86% 30.02 in 0.5 mi Calm Calm - 0.04 in   Overcast
1:13 AM 30.2 °F 26.7 °F 26.6 °F 86% 30.02 in 0.8 mi SSW 3.5 mph - 0.01 in   Overcast
1:33 AM 30.2 °F 26.7 °F 26.6 °F 86% 30.02 in 0.8 mi SSW 3.5 mph - 0.02 in   Overcast
1:54 AM 30.2 °F 26.7 °F 26.6 °F 86% 30.02 in 0.5 mi SW 3.5 mph - 0.03 in Fog Light Freezing Fog
2:14 AM 30.2 °F 25.4 °F 26.6 °F 86% 30.02 in 0.8 mi West 4.6 mph - N/A   Overcast
2:34 AM 30.2 °F 25.4 °F 28.4 °F 93% 30.02 in 2.0 mi SW 4.6 mph - N/A   Overcast
2:53 AM 30.2 °F 26.7 °F 28.4 °F 93% 30.01 in 2.0 mi SW 3.5 mph - N/A   Overcast
3:13 AM 30.2 °F 26.7 °F 28.4 °F 93% 30.02 in 3.0 mi WSW 3.5 mph - N/A   Overcast
3:34 AM 30.2 °F 26.7 °F 28.4 °F 93% 30.02 in 3.0 mi West 3.5 mph - N/A   Overcast
3:53 AM 30.2 °F 25.4 °F 28.4 °F 93% 30.02 in 3.0 mi West 4.6 mph - N/A Snow Light Snow
4:13 AM 30.2 °F 21.3 °F 28.4 °F 93% 30.04 in 10.0 mi West 10.4 mph - N/A   Overcast
4:34 AM 30.2 °F 24.3 °F 24.8 °F 80% 30.05 in 10.0 mi West 5.8 mph - N/A   Overcast
4:54 AM 30.2 °F 23.4 °F 24.8 °F 80% 30.06 in 10.0 mi West 6.9 mph - N/A   Mostly Cloudy
5:13 AM 28.4 °F 21.2 °F 24.8 °F 86% 30.07 in 10.0 mi West 6.9 mph - N/A   Mostly Cloudy
5:33 AM 28.4 °F 20.4 °F 23.0 °F 80% 30.08 in 10.0 mi West 8.1 mph 16.1 mph N/A   Overcast
5:54 AM 28.4 °F 19.1 °F 23.0 °F 80% 30.08 in 10.0 mi West 10.4 mph 16.1 mph N/A   Overcast
6:14 AM 28.4 °F 19.7 °F 21.2 °F 74% 30.08 in 10.0 mi WNW 9.2 mph 16.1 mph N/A   Mostly Cloudy
6:34 AM 28.4 °F 19.7 °F 21.2 °F 74% 30.08 in 10.0 mi WNW 9.2 mph - N/A   Scattered Clouds
6:54 AM 28.4 °F 21.2 °F 21.2 °F 74% 30.10 in 10.0 mi West 6.9 mph - N/A   Clear
7:13 AM 28.4 °F 21.2 °F 21.2 °F 74% 30.10 in 10.0 mi WNW 6.9 mph - N/A   Clear
7:33 AM 30.2 °F 22.6 °F 21.2 °F 69% 30.11 in 10.0 mi WNW 8.1 mph - N/A   Clear
7:54 AM 30.2 °F 23.4 °F 21.2 °F 69% 30.13 in 10.0 mi West 6.9 mph - N/A   Scattered Clouds
8:13 AM 32.0 °F 26.4 °F 23.0 °F 69% 30.12 in 10.0 mi WNW 5.8 mph 16.1 mph N/A   Scattered Clouds
8:33 AM 30.2 °F 22.6 °F 21.2 °F 69% 30.13 in 10.0 mi West 8.1 mph - N/A   Scattered Clouds
8:53 AM 33.8 °F 27.0 °F 21.2 °F 60% 30.14 in 10.0 mi West 8.1 mph - N/A   Scattered Clouds
9:14 AM 33.8 °F 26.4 °F 21.2 °F 60% 30.15 in 10.0 mi NW 9.2 mph 19.6 mph N/A   Scattered Clouds
9:34 AM 33.8 °F 26.4 °F 21.2 °F 60% 30.15 in 10.0 mi West 9.2 mph 16.1 mph N/A   Scattered Clouds
9:53 AM 33.8 °F 25.8 °F 21.2 °F 60% 30.15 in 10.0 mi West 10.4 mph - N/A   Scattered Clouds
10:14 AM 35.6 °F 29.2 °F 21.2 °F 56% 30.16 in 10.0 mi West 8.1 mph - N/A   Scattered Clouds
10:33 AM 35.6 °F 30.7 °F 21.2 °F 56% 30.15 in 10.0 mi WNW 5.8 mph - N/A   Scattered Clouds
10:54 AM 35.6 °F 29.2 °F 21.2 °F 56% 30.16 in 10.0 mi WNW 8.1 mph - N/A   Scattered Clouds
11:13 AM 33.8 °F 27.7 °F 21.2 °F 60% 30.16 in 10.0 mi NW 6.9 mph - N/A   Scattered Clouds
11:34 AM 33.8 °F 27.7 °F 19.4 °F 56% 30.17 in 10.0 mi NW 6.9 mph - N/A   Clear
11:54 AM 35.6 °F 31.7 °F 21.2 °F 56% 30.17 in 10.0 mi NW 4.6 mph - N/A   Scattered Clouds
12:13 PM 35.6 °F 31.7 °F 21.2 °F 56% 30.18 in 10.0 mi NW 4.6 mph - N/A   Scattered Clouds
12:34 PM 35.6 °F 29.9 °F 21.2 °F 56% 30.18 in 10.0 mi West 6.9 mph - N/A   Mostly Cloudy
12:54 PM 35.6 °F 29.9 °F 21.2 °F 56% 30.19 in 10.0 mi West 6.9 mph - N/A   Mostly Cloudy
1:13 PM 33.8 °F 29.6 °F 21.2 °F 60% 30.19 in 10.0 mi West 4.6 mph - N/A   Mostly Cloudy
1:34 PM 35.6 °F 31.7 °F 21.2 °F 56% 30.19 in 10.0 mi West 4.6 mph - N/A   Mostly Cloudy
1:53 PM 33.8 °F 30.8 °F 21.2 °F 60% 30.19 in 10.0 mi WNW 3.5 mph - N/A   Mostly Cloudy
2:14 PM 33.8 °F 30.8 °F 21.2 °F 60% 30.19 in 10.0 mi West 3.5 mph - N/A   Mostly Cloudy
2:34 PM 33.8 °F 28.6 °F 21.2 °F 60% 30.17 in 10.0 mi NW 5.8 mph - N/A   Scattered Clouds
2:53 PM 33.8 °F 27.0 °F 21.2 °F 60% 30.17 in 10.0 mi NW 8.1 mph 16.1 mph N/A   Scattered Clouds
3:14 PM 33.8 °F 26.4 °F 21.2 °F 60% 30.17 in 10.0 mi NW 9.2 mph - N/A   Scattered Clouds
3:33 PM 33.8 °F 26.4 °F 21.2 °F 60% 30.17 in 10.0 mi NNW 9.2 mph - N/A   Clear
3:54 PM 33.8 °F 26.4 °F 19.4 °F 56% 30.17 in 10.0 mi NW 9.2 mph - N/A   Clear
4:13 PM 33.8 °F 25.8 °F 21.2 °F 60% 30.17 in 10.0 mi NNW 10.4 mph - N/A   Scattered Clouds
4:33 PM 33.8 °F 28.6 °F 21.2 °F 60% 30.17 in 10.0 mi NNW 5.8 mph - N/A   Scattered Clouds
4:53 PM 33.8 °F 25.8 °F 21.2 °F 60% 30.17 in 10.0 mi NNW 10.4 mph - N/A   Scattered Clouds
5:13 PM 33.8 °F 25.8 °F 21.2 °F 60% 30.17 in 10.0 mi NNW 10.4 mph - N/A   Clear
5:34 PM 33.8 °F 27.0 °F 21.2 °F 60% 30.15 in 10.0 mi NNW 8.1 mph - N/A   Clear
5:54 PM 33.8 °F 27.7 °F 21.2 °F 60% 30.16 in 10.0 mi NNW 6.9 mph - N/A   Clear
6:13 PM 33.8 °F 27.0 °F 21.2 °F 60% 30.16 in 10.0 mi NNW 8.1 mph - N/A   Clear
6:33 PM 33.8 °F 28.6 °F 21.2 °F 60% 30.17 in 10.0 mi NNW 5.8 mph - N/A   Scattered Clouds
6:54 PM 32.0 °F 28.7 °F 23.0 °F 69% 30.17 in 10.0 mi NNW 3.5 mph - N/A   Scattered Clouds
7:14 PM 32.0 °F - 21.2 °F 64% 30.18 in 10.0 mi Calm Calm - N/A   Clear
7:33 PM 32.0 °F - 23.0 °F 69% 30.18 in 10.0 mi Calm Calm - N/A   Scattered Clouds
7:53 PM 30.2 °F 26.7 °F 23.0 °F 75% 30.18 in 4.0 mi North 3.5 mph - N/A   Overcast
8:13 PM 30.2 °F 24.3 °F 24.8 °F 80% 30.19 in 2.0 mi NNW 5.8 mph - N/A Snow Light Snow
8:33 PM 28.4 °F 22.2 °F 24.8 °F 86% 30.19 in 1.5 mi NNW 5.8 mph - N/A Snow Light Snow
8:54 PM 28.4 °F 22.2 °F 24.8 °F 86% 30.19 in 2.0 mi North 5.8 mph - N/A Snow Light Snow
9:13 PM 28.4 °F 21.2 °F 24.8 °F 86% 30.19 in 1.8 mi North 6.9 mph - N/A Snow Light Snow
9:34 PM 28.4 °F 21.2 °F 24.8 °F 86% 30.17 in 1.8 mi NNW 6.9 mph - 0.01 in Snow Light Snow
9:54 PM 28.4 °F 20.4 °F 24.8 °F 86% 30.16 in 1.8 mi North 8.1 mph - 0.01 in Snow Light Snow
10:13 PM 28.4 °F 20.4 °F 24.8 °F 86% 30.16 in 1.8 mi North 8.1 mph - 0.01 in Snow Light Snow
10:33 PM 28.4 °F 21.2 °F 24.8 °F 86% 30.15 in 2.5 mi North 6.9 mph - 0.01 in Snow Light Snow
10:53 PM 28.4 °F 19.7 °F 24.8 °F 86% 30.15 in 2.5 mi North 9.2 mph - 0.01 in Snow Light Snow
11:13 PM 28.4 °F 19.1 °F 24.8 °F 86% 30.14 in 1.8 mi North 10.4 mph - N/A Snow Light Snow
11:33 PM 28.4 °F 20.4 °F 24.8 °F 86% 30.14 in 1.8 mi North 8.1 mph - N/A Snow Light Snow
11:54 PM 28.4 °F 19.7 °F 24.8 °F 86% 30.13 in 2.0 mi North 9.2 mph - N/A Snow Light Snow